GFSNIL_850_spd_000.txt.gz
Wind_Speed
10 8 10 12 10 8 8 11 11 10 9 6 4 1 3 4 6 6 8 10 12 12
12 9 9 8 8 9 12 11 9 9 10 11 8 5 7 7 7 10 11 14 15 16
16 11 9 10 10 11 11 10 10 10 8 6 8 9 9 10 11 13 12 14 15 15
20 16 10 9 10 10 9 8 8 9 9 9 8 8 11 13 13 15 15 15 16 18
22 16 11 11 11 9 7 8 9 10 9 8 8 9 9 10 11 13 15 17 17 18
25 20 15 14 14 11 10 10 9 8 7 5 7 7 7 9 11 13 15 14 16 16
29 22 18 14 13 13 12 11 10 9 7 7 8 9 10 13 14 14 14 14 13 17
28 24 20 14 13 14 15 13 11 10 10 12 13 12 14 16 16 17 15 14 16 19
29 25 22 16 14 14 18 16 13 12 12 15 15 15 17 18 18 16 17 20 21 23
31 23 25 18 15 17 19 18 16 14 14 17 16 16 18 17 20 18 20 21 21 20
31 26 25 19 19 20 21 20 18 15 17 19 19 18 19 19 19 17 21 18 14 16
28 28 26 22 22 23 23 21 20 21 9 22 25 25 20 20 19 20 22 19 20 16
29 26 26 24 24 23 22 22 21 22 21 20 22 19 20 21 22 20 21 24 18 17
28 29 24 23 24 22 21 24 22 19 17 18 17 19 19 18 21 21 24 21 18 20

GFSNIL_850_spd_003.txt.gz
Wind_Speed
16 14 13 14 16 13 11 10 8 9 10 7 7 7 5 5 5 6 7 9 10 11
21 18 17 13 13 13 12 11 10 10 9 9 11 10 10 10 9 10 12 14 15 16
26 22 16 16 15 13 11 13 13 11 10 9 9 11 13 12 12 13 14 14 17 17
31 27 18 16 14 12 11 13 13 12 11 10 9 10 11 13 13 15 16 16 17 18
33 29 21 18 15 13 13 12 11 10 10 10 9 9 10 11 9 11 12 14 16 18
35 31 26 22 16 15 14 12 11 10 9 8 8 7 8 10 11 13 14 16 17 18
41 36 30 23 17 16 16 14 14 12 10 9 8 9 11 14 14 14 16 16 17 18
44 38 32 26 17 18 19 18 18 15 13 11 10 11 13 15 16 17 15 16 16 20
41 38 34 27 19 19 20 22 22 20 15 12 12 11 15 17 18 19 18 17 18 21
43 43 35 28 25 19 20 23 25 22 17 14 11 12 18 21 21 20 20 19 21 22
32 40 30 29 25 21 22 25 24 24 20 17 17 18 20 21 22 21 21 22 23 24
38 32 32 31 22 20 24 25 25 22 21 19 18 20 22 23 21 20 21 24 25 23
35 29 32 26 19 22 24 25 27 21 21 24 23 22 22 23 24 23 23 24 26 24
24 29 35 34 33 27 25 30 28 17 21 23 24 23 18 20 22 21 21 24 22 16

GFSNIL_850_spd_006.txt.gz
Wind_Speed
23 19 15 14 15 13 13 10 9 8 9 10 9 9 9 8 8 8 6 7 9 10
26 22 17 15 16 15 13 12 10 11 11 11 10 12 13 12 10 10 11 12 13 14
32 26 20 18 17 15 13 13 14 13 12 13 12 11 12 14 12 12 13 15 16 17
36 31 26 22 20 18 16 15 15 14 14 14 12 11 11 10 10 13 13 14 17 17
40 35 32 28 23 19 18 17 16 15 15 15 14 11 10 9 8 9 10 12 15 17
44 40 37 30 26 20 20 19 17 17 16 15 12 11 10 8 8 11 13 14 16 16
46 45 42 34 31 23 22 21 19 18 16 14 12 12 10 11 12 14 16 16 16 16
49 49 46 41 33 26 24 23 20 20 18 16 16 13 11 13 14 17 18 18 17 18
50 51 51 44 33 30 24 23 22 24 23 20 17 13 12 13 17 19 20 20 21 22
47 47 47 28 22 33 24 21 27 28 25 23 19 14 15 17 22 22 22 23 24 25
41 39 43 27 28 34 31 28 27 25 24 25 21 17 19 22 24 25 25 24 24 25
35 36 40 34 32 34 38 32 27 22 21 21 25 21 22 23 26 25 23 22 23 25
26 32 39 31 26 35 39 36 30 22 16 14 23 25 28 25 24 23 20 21 23 22
20 27 31 30 28 30 29 30 23 24 24 22 28 26 30 25 22 19 18 20 19 21

GFSNIL_850_spd_009.txt.gz
Wind_Speed
28 25 22 20 17 17 16 13 12 11 11 12 10 8 7 6 7 7 6 6 6 8
32 30 27 22 18 17 17 16 14 12 12 12 11 10 11 11 11 11 10 10 11 11
36 32 28 24 21 19 19 18 16 14 13 13 12 12 13 14 14 13 12 12 13 14
40 35 31 29 25 21 21 19 18 16 15 15 13 13 13 13 12 13 12 12 10 12
45 40 37 36 31 23 21 24 21 18 17 17 16 14 14 12 13 12 11 9 10 12
48 47 44 41 38 32 23 25 23 20 19 18 17 15 15 13 13 11 11 12 14 15
52 50 49 48 40 33 27 23 24 22 20 18 17 16 15 15 14 13 14 15 16 18
51 49 48 47 44 36 28 20 23 24 23 20 20 17 16 16 14 15 16 16 17 20
46 45 45 47 48 44 39 41 31 33 28 26 23 18 16 17 18 17 19 20 20 22
35 38 39 42 44 46 38 24 28 34 31 33 29 21 18 19 19 21 22 23 26 25
27 32 33 35 41 47 40 28 34 32 34 34 31 24 18 19 22 25 27 25 26 27
19 23 28 31 38 40 33 27 33 34 34 31 28 23 22 24 22 27 28 28 26 22
11 17 22 28 29 37 32 32 35 31 22 21 21 23 28 24 31 31 25 26 24 21
13 13 13 23 27 36 22 23 20 20 26 15 15 27 21 30 32 24 20 23 20 22

GFSNIL_850_spd_015.txt.gz
Wind_Speed
28 24 22 21 17 16 15 14 15 16 14 12 10 9 9 7 6 6 4 5 5 4
29 29 26 23 22 19 19 16 19 16 14 13 13 12 11 8 9 9 8 8 8 6
34 32 31 28 28 24 20 21 18 19 16 15 14 13 11 9 8 10 9 8 10 10
34 32 33 35 33 32 26 25 23 24 17 15 14 12 10 10 12 11 12 11 11 10
38 35 34 36 33 32 31 29 27 25 22 18 15 11 4 11 12 13 15 13 12 11
39 41 42 37 35 34 35 33 30 28 26 24 19 9 20 17 21 17 18 15 15 14
42 44 40 37 36 36 37 38 38 35 32 29 26 18 21 26 24 21 20 19 17 16
39 38 37 36 37 37 40 42 43 41 38 36 35 31 25 31 24 23 21 20 19 18
37 38 37 36 36 38 40 38 43 46 44 43 38 33 26 26 23 23 22 21 20 20
34 37 37 36 37 40 41 40 41 43 45 45 39 33 24 22 26 23 20 20 22 19
36 33 35 35 34 38 39 37 36 36 45 47 42 36 28 25 28 25 21 27 23 22
34 34 32 29 29 35 35 33 33 35 38 45 35 34 30 27 28 23 25 26 24 26
28 28 27 26 29 30 27 27 28 32 28 31 31 35 34 25 28 28 24 25 24 26
23 24 22 23 25 24 23 24 24 23 22 21 23 24 25 23 26 26 25 28 27 26

GFSNIL_850_spd_021.txt.gz
Wind_Speed
37 30 29 23 23 24 23 20 18 17 19 15 16 17 15 13 12 14 18 10 14 17
37 38 32 33 25 26 25 21 16 17 16 15 16 19 17 14 14 14 13 12 15 20
37 40 37 35 35 30 26 24 22 24 22 21 19 20 20 18 17 15 13 10 12 17
35 40 38 39 39 39 30 28 30 26 27 26 25 23 23 21 20 19 17 16 16 14
37 38 40 42 42 41 39 34 32 33 31 29 28 25 25 23 24 21 18 18 20 21
39 39 42 42 44 44 42 40 38 37 38 36 32 30 28 25 25 24 19 18 20 21
44 42 42 43 44 46 45 41 42 42 40 39 37 35 31 27 27 29 26 25 24 24
45 44 42 44 45 45 48 47 43 42 42 42 39 38 35 35 32 33 26 22 23 25
45 45 45 45 46 45 43 44 45 44 43 42 42 40 36 37 34 33 29 22 21 25
45 44 44 45 45 44 42 40 40 40 40 41 39 37 36 37 35 33 33 23 22 23
45 44 42 42 43 42 40 38 38 37 38 37 36 32 32 33 34 32 34 25 21 22
47 44 46 45 42 40 38 37 37 36 37 35 33 32 29 30 31 32 32 26 22 22
50 47 48 47 43 40 38 36 35 35 34 30 27 27 27 22 26 29 31 27 27 24
48 47 47 44 40 41 36 34 33 30 29 26 24 22 23 23 20 19 24 27 27 25

GFSNIL_850_spd_024.txt.gz
Wind_Speed
31 31 32 28 30 28 25 24 22 20 18 18 16 16 16 14 13 14 17 18 18 15
34 32 35 29 29 30 26 24 22 19 18 19 18 17 17 16 14 14 14 17 18 18
34 33 35 32 35 31 27 25 24 21 21 18 19 17 16 18 16 17 16 14 16 15
37 35 35 36 38 38 31 29 29 27 26 23 22 20 19 19 21 19 17 15 14 12
39 35 36 38 40 41 39 35 34 31 29 26 26 25 23 22 23 25 24 18 15 14
43 40 37 38 41 43 43 43 40 35 34 34 30 28 27 26 25 27 24 23 19 15
45 42 39 38 42 43 45 44 45 44 41 36 33 33 32 30 29 28 26 26 21 20
46 42 41 40 42 44 45 47 45 43 43 40 38 37 36 34 32 31 28 27 28 21
47 47 46 44 43 43 45 45 46 48 45 44 41 38 38 35 36 35 31 28 30 26
49 48 48 46 45 45 44 44 44 46 45 43 41 39 37 35 36 37 29 27 30 27
51 49 47 47 46 45 43 42 41 39 39 40 40 36 32 34 35 32 30 24 26 30
52 49 49 47 46 43 40 39 38 34 33 33 31 27 25 27 31 30 26 24 23 27
56 52 47 46 44 40 36 34 33 31 30 29 26 22 24 26 29 27 19 22 24 25
58 55 48 44 42 40 37 36 32 30 30 27 25 24 24 25 26 20 18 20 22 25

GFSNIL_850_spd_027.txt.gz
Wind_Speed
40 35 29 29 28 30 31 26 23 22 22 18 15 14 15 15 14 14 14 16 15 13
42 39 32 27 29 31 33 28 24 24 23 19 18 17 17 16 15 15 15 16 16 16
44 40 36 29 31 32 35 32 28 27 25 21 20 20 18 17 18 17 16 15 17 17
48 44 40 33 32 35 34 33 30 28 25 22 22 21 21 18 18 20 18 18 16 14
49 47 44 38 34 37 37 35 31 30 29 26 25 24 23 21 21 21 21 20 20 15
51 49 48 42 38 38 39 38 37 33 34 31 28 28 27 26 24 22 21 21 22 19
52 48 49 44 40 39 41 41 41 40 37 35 32 31 30 29 27 26 25 22 22 25
52 48 48 47 46 41 41 43 43 43 42 40 37 36 34 32 30 29 28 27 24 25
52 50 51 49 49 46 44 43 43 45 46 44 44 42 39 36 33 31 30 31 30 23
53 52 52 52 50 50 48 45 45 47 47 48 46 42 39 37 35 33 32 34 27 24
53 52 53 53 53 52 50 49 47 46 47 45 44 40 39 35 34 33 34 31 26 23
53 53 54 54 54 54 53 51 49 48 42 40 37 33 33 31 33 32 30 26 23 22
54 55 55 53 53 54 54 52 49 47 39 34 32 27 22 22 28 28 29 24 19 19
55 55 55 55 53 53 52 50 46 41 33 29 26 23 21 24 25 27 24 24 18 19

GFSNIL_850_spd_030.txt.gz
Wind_Speed
44 43 38 33 30 28 28 28 28 25 24 22 19 16 15 16 14 13 13 13 13 11
45 44 42 37 31 29 29 27 28 25 24 21 19 18 18 17 15 15 14 13 15 15
47 43 41 39 34 29 30 28 31 29 27 24 22 21 21 19 16 17 16 15 15 16
51 47 44 42 37 33 29 31 31 33 29 26 25 24 24 22 19 18 18 16 16 15
53 50 48 45 39 36 33 32 31 34 33 30 28 25 25 23 22 20 19 19 18 19
55 53 50 47 43 39 36 34 36 35 37 34 32 28 25 24 23 22 20 19 20 19
54 53 51 47 44 42 39 37 38 40 40 37 35 31 28 28 27 25 24 22 20 20
54 50 48 49 45 41 41 41 39 42 42 42 38 36 34 31 29 27 25 25 24 23
53 50 48 50 49 44 43 45 43 43 46 45 43 40 37 33 31 29 27 27 26 28
51 50 48 47 50 49 46 46 48 45 45 49 46 43 40 36 34 33 32 28 27 29
48 47 47 48 50 51 49 48 48 49 47 47 48 46 43 37 36 36 33 31 29 28
46 46 47 48 50 53 53 51 50 50 49 48 45 44 41 39 41 39 36 31 28 24
46 47 47 46 49 51 53 53 52 51 51 49 46 43 37 40 42 41 36 29 27 24
45 46 44 47 47 48 52 52 52 51 52 49 45 42 37 37 38 36 31 29 28 29

GFSNIL_850_spd_033.txt.gz
Wind_Speed
44 42 39 36 33 28 27 24 24 25 22 21 19 18 16 15 15 13 13 12 13 11
46 45 43 39 34 32 30 27 26 26 27 24 22 21 18 16 15 15 15 15 14 14
44 44 44 41 37 33 32 29 29 28 27 26 24 22 21 19 17 18 17 17 16 16
47 47 46 45 40 35 33 31 31 31 29 29 27 26 24 22 20 21 20 19 19 18
46 47 47 46 42 38 35 33 31 32 33 33 31 30 27 26 25 25 23 22 21 20
53 51 50 47 45 41 38 36 35 33 36 35 36 34 31 29 27 27 26 23 22 22
54 54 52 49 46 44 41 39 37 37 35 36 38 38 35 33 31 30 29 27 24 24
48 50 50 49 46 44 44 42 40 40 38 38 39 41 40 38 36 34 32 30 29 28
45 47 48 47 46 44 45 44 44 44 42 41 43 44 43 41 41 38 35 34 32 31
45 46 44 45 44 45 45 45 47 46 46 46 45 47 46 45 43 42 40 38 35 34
46 46 45 44 44 46 46 47 49 49 48 48 47 48 48 46 44 46 44 41 38 36
45 46 47 46 45 47 47 48 50 50 49 49 49 49 47 45 46 49 48 44 42 39
44 45 46 45 47 46 47 47 48 50 51 51 49 49 48 44 43 48 50 49 45 42
39 39 40 41 42 41 42 41 48 51 51 51 51 50 49 47 45 48 51 52 48 46

GFSNIL_850_spd_036.txt.gz
Wind_Speed
39 36 32 30 24 20 20 19 18 20 22 22 20 18 17 14 13 15 15 13 13 9
43 42 34 34 32 28 23 20 20 20 21 21 21 21 19 15 16 17 17 16 15 14
46 44 43 42 39 34 29 28 23 23 23 23 23 24 23 19 20 20 20 19 20 18
46 45 44 45 44 42 37 35 31 30 25 25 25 26 27 24 21 23 23 23 23 23
47 46 44 45 43 42 40 38 35 33 31 30 28 27 30 29 25 28 27 27 27 25
46 47 49 47 46 44 41 40 38 36 36 34 33 33 33 33 32 31 30 29 29 27
52 51 48 47 47 46 45 43 41 41 39 37 35 36 37 37 36 35 34 33 32 30
48 52 53 53 52 49 47 45 44 43 42 40 38 37 42 43 41 40 38 36 36 34
44 44 48 52 54 52 50 47 46 47 47 45 43 40 42 44 46 45 42 40 38 35
45 44 44 46 48 49 51 48 48 49 50 50 48 47 44 45 47 46 45 45 42 34
45 45 42 42 43 44 47 49 49 49 52 51 51 50 48 44 44 47 43 42 44 42
41 38 35 42 44 38 35 39 43 40 47 53 53 51 49 47 46 47 51 50 48 46
37 37 39 39 37 35 32 34 33 37 44 51 54 53 51 49 49 49 48 49 51 51
32 34 35 35 36 35 36 33 36 37 38 45 53 56 56 53 53 54 52 49 46 47